Home   Weather   Stamford   Past weeks

Flag for USA Past Weather in Stamford, Connecticut, USA — Yesterday and Last 2 Weeks

Now
36 °F

Partly sunny.


Feels Like: 26 °F
Forecast: 35 / 43 °F
Wind: 16 mph from Northwest

Location: Westchester County Airport

Current Time: Feb 26, 2017 at 11:50:43 am

Latest Report: Feb 26, 2017 at 10:56 am


Visibility: 10 mi

Pressure: 29.98 "Hg

Humidity: 46%

Dew Point: 17 °F

Location of StamfordLocation

Past Weather in Stamford — Graph

°F

Stamford Temperature Yesterday

Maximum temperature yesterday: 63 °F (at 12:56 pm)
Minimum temperature yesterday: 41 °F (at 11:56 pm)
Average temperature yesterday: 54 °F

High & Low Weather Summary for the Past Weeks

 TemperatureHumidityPressure
High69 °F (Feb 24, 12:56 pm)100% (Feb 25, 3:56 am)30.39 "Hg (Feb 25, 3:56 am)
Low20 °F (Feb 14, 5:56 am)22% (Feb 20, 4:56 pm)29.29 "Hg (Feb 15, 3:56 pm)
Average41 °F65%29.83 "Hg
* Reported Feb 11 9:56 am — Feb 26 9:56 am, Stamford, Weather by CustomWeather, © 2017

Note: Actual official high and low records may vary slightly from our data, if they occured in-between our weather recording intervals... More about our weather records

Advertising

Stamford Weather History for the Previous 24 Hours

Scroll right to see more
 ConditionsComfort  
Time TempWeatherWind HumidityBarometerVisibility
9:56 am
Sun, Feb 26
36 °FPartly sunny.22 mph46%29.96 "Hg10 mi
8:56 am35 °FPartly sunny.24 mph48%29.93 "Hg10 mi
7:56 am35 °FPartly sunny.20 mph48%29.91 "Hg10 mi
6:56 am36 °FPartly sunny.18 mph50%29.86 "Hg10 mi
5:56 am36 °FPassing clouds.8 mph52%29.81 "Hg10 mi
4:56 am36 °FPassing clouds.25 mph48%29.78 "Hg10 mi
3:56 am38 °FPassing clouds.18 mph55%29.75 "Hg10 mi
2:56 am39 °FPassing clouds.17 mph60%29.72 "Hg10 mi
1:56 am39 °FPassing clouds.22 mph62%29.70 "Hg10 mi
12:56 am41 °FPassing clouds.16 mph67%29.65 "Hg10 mi
11:56 pm
Sat, Feb 25
41 °FPassing clouds.13 mph86%29.63 "Hg10 mi
10:56 pm45 °FPartly cloudy.14 mph80%29.61 "Hg10 mi
9:56 pm45 °FPassing clouds.12 mph82%29.57 "Hg10 mi
8:56 pm46 °FOvercast.13 mph83%29.55 "Hg10 mi
8:43 pm46 °FOvercast.17 mph83%29.54 "Hg10 mi
7:56 pm48 °FLight rain. Fog.20 mph86%29.57 "Hg6 mi
6:56 pm57 °FThunderstorms. Fog.16 mph93%29.54 "Hg2 mi
6:38 pm56 °FThunderstorms. Fog.9 mph93%29.50 "Hg6 mi
5:56 pm58 °FPassing clouds.12 mph87%29.48 "Hg10 mi
4:56 pm60 °FScattered clouds.16 mph83%29.48 "Hg10 mi
3:56 pm62 °FPartly sunny.10 mph80%29.49 "Hg10 mi
2:56 pm63 °FPartly sunny.12 mph75%29.55 "Hg10 mi
1:56 pm62 °FPartly sunny.13 mph75%29.59 "Hg10 mi
12:56 pm63 °FBroken clouds.15 mph75%29.63 "Hg10 mi
12:33 pm62 °FBroken clouds.12 mph78%29.65 "Hg10 mi
11:56 am57 °FFog.10 mph93%29.68 "Hg3 mi
11:15 am56 °FFog.9 mph97%29.70 "Hg1 mi
11:00 am56 °FFog.7 mph97%29.71 "Hg1 mi
Weather by CustomWeather, © 2017

See weather overviewHow to use our weather pages

LIVE ANNULAR SOLAR ECLIPSE – Watch the eclipse as it happens